Location: Arclight Observatory
(36.5667°N, 87.3333°W)
Time: 05:18:36
(UTC-05:00)

ISS - Visible Passes

Search period start: 27 March 2015 00:00
Search period end: 06 April 2015 00:00
Orbit: 396 x 406 km, 51.6° (Epoch: 26 March)

Date Brightness Start Highest point End Pass type
(mag) Time Alt. Az. Time Alt. Az. Time Alt. Az.
27 Mar -0.7 05:37:28 10° NNW 05:39:44 18° NNE 05:42:03 10° ENE visible
28 Mar -0.3 04:44:51 10° N 04:46:07 12° NNE 04:47:27 10° NE visible
29 Mar -1.7 05:26:38 10° NNW 05:29:37 33° NE 05:32:36 10° ESE visible
30 Mar -0.9 04:35:21 18° N 04:36:03 20° NNE 04:38:32 10° E visible
30 Mar -2.9 06:09:31 10° WNW 06:12:36 42° SW 06:15:39 10° SSE visible
31 Mar -3.4 05:17:25 24° NW 05:19:13 83° NE 05:22:26 10° SE visible
01 Apr -1.1 04:27:07 25° E 04:27:07 25° E 04:28:46 10° ESE visible
01 Apr -1.6 05:59:46 10° W 06:01:55 17° SW 06:04:01 10° S visible
02 Apr -2.0 05:09:47 25° S 05:09:47 25° S 05:11:32 10° SSE visible
02 Apr -2.0 20:06:57 10° S 20:09:26 21° SE 20:09:47 20° ESE visible
03 Apr -3.1 20:48:51 10° WSW 20:52:05 67° NW 20:52:37 54° NNE visible
04 Apr -3.2 19:55:22 10° SSW 19:58:33 53° SE 20:01:44 10° ENE visible
04 Apr -0.6 21:32:50 10° WNW 21:35:04 18° NNW 21:35:04 18° NNW visible
05 Apr -1.4 20:38:27 10° W 20:41:22 29° NNW 20:44:17 10° NNE visible
